This is the latest recevied weather packets stored in our database for station/object KK7ISX. If no packets are shown the sender has not sent any weather packets the latest 10 day(s).
| Time | Temp. | Humidity | Pressure | Rain* | Wind** | Luminosity | Snow |
|---|---|---|---|---|---|---|---|
| 1777853744 | 27.22° C | 28% | 1008.4 hPa | 0 mm | - | 243 W/m² | - |
| 1777853440 | 26.67° C | 28% | 1008.5 hPa | 0 mm | - | 254 W/m² | - |
| 1777853137 | 27.22° C | 28% | 1008.4 hPa | 0 mm | - | 268 W/m² | - |
| 1777852835 | 26.67° C | 29% | 1008.5 hPa | 0 mm | - | 281 W/m² | - |
| 1777852533 | 26.67° C | 29% | 1008.4 hPa | 0 mm | - | 293 W/m² | - |
| 1777852229 | 26.67° C | 28% | 1008.4 hPa | 0 mm | - | 305 W/m² | - |
| 1777851927 | 26.67° C | 29% | 1008.7 hPa | 0 mm | - | 319 W/m² | - |
| 1777851625 | 27.22° C | 30% | 1008.6 hPa | 0 mm | - | 332 W/m² | - |
| 1777851321 | 26.67° C | 29% | 1008.7 hPa | 0 mm | - | 347 W/m² | - |
| 1777851017 | 26.67° C | 29% | 1008.9 hPa | 0 mm | - | 361 W/m² | - |
| 1777850714 | 26.67° C | 29% | 1008.5 hPa | 0 mm | - | 376 W/m² | - |
| 1777850406 | 27.22° C | 30% | 1009 hPa | 0 mm | - | 389 W/m² | - |
| 1777850104 | 26.67° C | 31% | 1009 hPa | 0 mm | - | 402 W/m² | - |
| 1777849800 | 27.22° C | 30% | 1009.1 hPa | 0 mm | - | 417 W/m² | - |
| 1777849496 | 27.22° C | 28% | 1009.1 hPa | 0 mm | - | 431 W/m² | - |
| 1777849194 | 26.67° C | 28% | 1009.4 hPa | 0 mm | - | 446 W/m² | - |
| 1777848890 | 26.67° C | 29% | 1009.3 hPa | 0 mm | - | 458 W/m² | - |
| 1777848586 | 26.67° C | 28% | 1009.5 hPa | 0 mm | - | 471 W/m² | - |
| 1777848283 | 27.22° C | 28% | 1009.6 hPa | 0 mm | - | 481 W/m² | - |
| 1777847981 | 26.67° C | 27% | 1009.5 hPa | 0 mm | - | 492 W/m² | - |
| 1777847679 | 26.67° C | 27% | 1009.6 hPa | 0 mm | - | 503 W/m² | - |
| 1777847374 | 26.67° C | 27% | 1009.8 hPa | 0 mm | - | 517 W/m² | - |
| 1777847073 | 26.11° C | 29% | 1009.8 hPa | 0 mm | - | 530 W/m² | - |
| 1777846771 | 26.67° C | 26% | 1010 hPa | 0 mm | - | 542 W/m² | - |
| 1777846469 | 26.67° C | 29% | 1009.9 hPa | 0 mm | - | 551 W/m² | - |
* Rain latest hour (hover to see other rain measurements)
** Current wind speed in m/s (hover to see current wind gust speed)